Lakeville, MN

3:03 AM CDT on July 28, 2017 (GMT -0500)
Airlake

Weather History for KLVN - November, 2012

Change the Weather History Date:

Tuesday, November 20, 2012

  Actual Average Record
Temperature  
Mean Temperature 40 °F -  
Max Temperature 51 °F 37 °F 60 °F (1982)
Min Temperature 28 °F 23 °F -2 °F (2014)
Degree Days  
Heating Degree Days 26    
Moisture  
Dew Point 33 °F    
Average Humidity 84    
Maximum Humidity 100    
Minimum Humidity 50    
Precipitation  
Precipitation 0.00 in - - ()
Sea Level Pressure  
Sea Level Pressure 30.11 in    
Wind  
Wind Speed 3 mph (WNW)    
Max Wind Speed 7 mph    
Max Gust Speed -    
Visibility 8 miles    
Events      
Averages and records for this station are not official NWS values.
T = Trace of Precipitation, MM = Missing Value Source: NWS Daily Summary

Daily Weather History Graph

Daily Weather History Graph

Search for Another Location

Airport or City:

Trip Planner

Search our weather history database for the weather conditions in past years. The results will help you decide how hot, cold, wet, or windy it might be!

Date:

Astronomy

Nov. 20, 2012 Rise Set
Actual Time 7:16 AM CST 4:40 PM CST
Civil Twilight 6:44 AM CST 5:12 PM CST
Nautical Twilight 6:09 AM CST 5:47 PM CST
Astronomical Twilight 5:34 AM CST 6:22 PM CST
Moon 12:42 PM CST (11/20) No Moon Set
Length of Visible Light 10h 27m
Length of Day
9h 23m
First Quarter, 51% of the Moon is Illuminated
Nov 20
First Quarter
Nov 28
Full
Dec 6
Last Quarter
Dec 13
New
Dec 19
First Quarter

Hourly Weather History & Observations

Time (CST) Temp. Windchill Dew Point Humidity Pressure Visibility Wind Dir Wind Speed Gust Speed Precip Events Conditions
12:14 AM 35.6 °F 32.8 °F 35.6 °F 100% 30.07 in 10.0 mi WNW 3.5 mph - N/A   Clear
12:34 AM 37.4 °F 33.8 °F 35.6 °F 93% 30.07 in 10.0 mi WNW 4.6 mph - N/A   Clear
12:53 AM 37.4 °F 32.8 °F 33.8 °F 87% 30.06 in 10.0 mi WNW 5.8 mph - N/A   Clear
1:14 AM 37.4 °F 34.9 °F 35.6 °F 93% 30.07 in 10.0 mi West 3.5 mph - N/A   Clear
1:33 AM 37.4 °F 32.1 °F 35.6 °F 93% 30.07 in 10.0 mi WNW 6.9 mph - N/A   Clear
1:54 AM 37.4 °F 32.8 °F 35.6 °F 93% 30.08 in 10.0 mi WNW 5.8 mph - N/A   Clear
2:14 AM 33.8 °F 28.6 °F 32.0 °F 93% 30.08 in 7.0 mi WNW 5.8 mph - N/A   Clear
2:33 AM 33.8 °F 27.7 °F 33.8 °F 100% 30.09 in 7.0 mi NW 6.9 mph - N/A   Clear
2:54 AM 37.4 °F 32.1 °F 35.6 °F 93% 30.09 in 7.0 mi NNW 6.9 mph - N/A   Clear
3:14 AM 35.6 °F 29.9 °F 33.8 °F 93% 30.10 in 7.0 mi NW 6.9 mph - N/A   Clear
3:33 AM 37.4 °F 32.1 °F 35.6 °F 93% 30.10 in 10.0 mi NW 6.9 mph - N/A   Clear
3:54 AM 35.6 °F 31.7 °F 33.8 °F 93% 30.11 in 7.0 mi NW 4.6 mph - N/A   Clear
4:14 AM 35.6 °F 31.7 °F 33.8 °F 93% 30.11 in 10.0 mi NNW 4.6 mph - N/A   Clear
4:33 AM 35.6 °F 29.9 °F 33.8 °F 93% 30.12 in 7.0 mi NW 6.9 mph - N/A   Clear
4:54 AM 35.6 °F 29.9 °F 33.8 °F 93% 30.13 in 10.0 mi NW 6.9 mph - N/A   Clear
5:14 AM 33.8 °F 28.6 °F 30.2 °F 87% 30.14 in 7.0 mi NW 5.8 mph - N/A   Clear
5:33 AM 33.8 °F - 33.8 °F 100% 30.13 in 7.0 mi Calm Calm - N/A   Clear
5:54 AM 33.8 °F - 32.0 °F 93% 30.13 in 7.0 mi Calm Calm - N/A   Clear
6:14 AM 28.4 °F - 28.4 °F 100% 30.13 in 3.0 mi Calm Calm - N/A   Clear
6:33 AM 28.4 °F 23.3 °F 28.4 °F 100% 30.13 in 1.8 mi West 4.6 mph - N/A   Mist
6:54 AM 30.2 °F - 30.2 °F 100% 30.14 in 4.0 mi Calm Calm - N/A   Clear
7:14 AM 28.4 °F 22.2 °F 26.6 °F 93% 30.14 in 2.5 mi West 5.8 mph - N/A   Clear
7:33 AM 28.4 °F 23.3 °F 28.4 °F 100% 30.14 in 3.0 mi WNW 4.6 mph - N/A   Clear
7:54 AM 30.2 °F 24.3 °F 30.2 °F 100% 30.15 in 2.5 mi WNW 5.8 mph - N/A   Clear
8:14 AM 32.0 °F 26.4 °F 32.0 °F 100% 30.15 in 3.0 mi WNW 5.8 mph - N/A   Clear
8:33 AM 33.8 °F 28.6 °F 33.8 °F 100% 30.15 in 4.0 mi NW 5.8 mph - N/A   Clear
8:54 AM 35.6 °F 30.7 °F 33.8 °F 93% 30.15 in 5.0 mi NW 5.8 mph - N/A   Clear
9:14 AM 37.4 °F - 33.8 °F 87% 30.15 in 7.0 mi Calm Calm - N/A   Clear
9:33 AM 39.2 °F - 35.6 °F 87% 30.15 in 7.0 mi Calm Calm - N/A   Clear
9:54 AM 39.2 °F - 35.6 °F 87% 30.16 in 7.0 mi Calm Calm - N/A   Clear
10:14 AM 41.0 °F - 35.6 °F 81% 30.16 in 7.0 mi Calm Calm - N/A   Clear
10:33 AM 42.8 °F - 35.6 °F 76% 30.16 in 7.0 mi Calm Calm - N/A   Clear
10:54 AM 44.6 °F - 35.6 °F 71% 30.16 in 7.0 mi Calm Calm - N/A   Clear
11:13 AM 46.4 °F 45.2 °F 37.4 °F 71% 30.16 in 10.0 mi West 3.5 mph - N/A   Clear
11:33 AM 46.4 °F 45.2 °F 37.4 °F 71% 30.15 in 10.0 mi WSW 3.5 mph - N/A   Clear
11:53 AM 46.4 °F 42.9 °F 37.4 °F 71% 30.15 in 10.0 mi WSW 6.9 mph - N/A   Clear
12:13 PM 46.4 °F 42.9 °F 37.4 °F 71% 30.14 in 10.0 mi West 6.9 mph - N/A   Clear
12:34 PM 48.2 °F - 37.4 °F 66% 30.13 in 10.0 mi WNW 5.8 mph - N/A   Clear
12:53 PM 48.2 °F - 37.4 °F 66% 30.13 in 10.0 mi West 3.5 mph - N/A   Clear
1:13 PM 50.0 °F - 37.4 °F 62% 30.13 in 10.0 mi West 4.6 mph - N/A   Clear
1:34 PM 50.0 °F - 35.6 °F 58% 30.12 in 10.0 mi Calm Calm - N/A   Clear
1:53 PM 50.0 °F - 35.6 °F 58% 30.11 in 10.0 mi Calm Calm - N/A   Clear
2:13 PM 50.0 °F - 35.6 °F 58% 30.12 in 10.0 mi Calm Calm - N/A   Clear
2:34 PM 51.8 °F - 35.6 °F 54% 30.12 in 10.0 mi Calm Calm - N/A   Clear
2:53 PM 51.8 °F - 35.6 °F 54% 30.12 in 10.0 mi Calm Calm - N/A   Clear
3:13 PM 51.8 °F - 33.8 °F 50% 30.12 in 10.0 mi Calm Calm - N/A   Clear
3:34 PM 50.0 °F - 33.8 °F 54% 30.12 in 10.0 mi Calm Calm - N/A   Clear
3:53 PM 48.2 °F - 33.8 °F 58% 30.12 in 10.0 mi Calm Calm - N/A   Clear
4:13 PM 46.4 °F - 33.8 °F 62% 30.11 in 7.0 mi Calm Calm - N/A   Clear
4:34 PM 44.6 °F - 33.8 °F 66% 30.12 in 10.0 mi Calm Calm - N/A   Clear
4:53 PM 46.4 °F - 33.8 °F 62% 30.11 in 10.0 mi Calm Calm - N/A   Clear
5:13 PM 42.8 °F - 33.8 °F 70% 30.11 in 10.0 mi Calm Calm - N/A   Clear
5:34 PM 39.2 °F - 32.0 °F 75% 30.11 in 10.0 mi Calm Calm - N/A   Clear
5:53 PM 37.4 °F - 32.0 °F 81% 30.11 in 10.0 mi Calm Calm - N/A   Clear
6:14 PM 30.2 °F - 28.4 °F 93% 30.11 in 10.0 mi Calm Calm - N/A   Clear
6:34 PM 30.2 °F - 28.4 °F 93% 30.11 in 10.0 mi Calm Calm - N/A   Clear
6:53 PM 32.0 °F - 30.2 °F 93% 30.10 in 10.0 mi Calm Calm - N/A   Clear
7:13 PM 32.0 °F - 28.4 °F 87% 30.10 in 10.0 mi Calm Calm - N/A   Clear
7:34 PM 30.2 °F - 28.4 °F 93% 30.10 in 10.0 mi Calm Calm - N/A   Clear
7:54 PM 28.4 °F - 26.6 °F 93% 30.10 in 10.0 mi Calm Calm - N/A   Clear
8:13 PM 32.0 °F - 28.4 °F 87% 30.10 in 10.0 mi Calm Calm - N/A   Clear
8:33 PM 30.2 °F - 28.4 °F 93% 30.09 in 10.0 mi Calm Calm - N/A   Clear
8:54 PM 30.2 °F - 30.2 °F 100% 30.09 in 10.0 mi Calm Calm - N/A   Clear
9:13 PM 30.2 °F 24.3 °F 28.4 °F 93% 30.08 in 10.0 mi SSE 5.8 mph - N/A   Clear
9:34 PM 32.0 °F 26.4 °F 30.2 °F 93% 30.07 in 10.0 mi SSE 5.8 mph - N/A   Clear
9:54 PM 35.6 °F 31.7 °F 30.2 °F 81% 30.07 in 10.0 mi SSE 4.6 mph - N/A   Clear
10:13 PM 33.8 °F - 30.2 °F 87% 30.07 in 10.0 mi Calm Calm - N/A   Clear
10:34 PM 33.8 °F - 30.2 °F 87% 30.06 in 10.0 mi Calm Calm - N/A   Clear
10:54 PM 32.0 °F - 30.2 °F 93% 30.07 in 7.0 mi Calm Calm - N/A   Clear
11:13 PM 30.2 °F - 28.4 °F 93% 30.06 in 7.0 mi Calm Calm - N/A   Clear
11:34 PM 32.0 °F 28.7 °F 28.4 °F 87% 30.06 in 7.0 mi SSE 3.5 mph - N/A   Clear
11:53 PM 33.8 °F 30.8 °F 30.2 °F 87% 30.05 in 10.0 mi South 3.5 mph - N/A   Clear